Tracking 19250 objects as of 23-Sep-2018
HD Live streaming from Space Station
objects crossing your sky now

FENGYUN 1C DEB

Track FENGYUN 1C DEB now!
10-day predictions


NORAD ID: 31440
Int'l Code: 1999-025BUC
Perigee: 803.5 km
Apogee: 871.6 km
Inclination: 98.9 °
Period: 101.5 minutes
Semi major axis: 7208 km
RCS: 0.0035 m2 (small)
Launch date: May 10, 1999
Source: People's Republic of China (PRC)
Launch site: Taiyaun Space Center, China (TSC)

Note: This is SATELLITE DEBRIS
aabbcc
Your satellite tracking list
Your tracking list is empty




NASA's NSSDC Master Catalog

Two Line Element Set (TLE):
1 31440U 99025BUC 18263.35528426  .00000434  00000-0  22921-3 0  9992
2 31440  98.8982 310.7158 0047220  46.5098 313.9988 14.18495975591447
Source of the keplerian elements: AFSPC